Regional Weather Roundup
Issued by NWS Little Rock, AR

Home | Current Version | Previous Version | Graphics & Text | Print | Product List | Glossary On
Versions: 1 2 3 4 5 6 7 8 9 10 11 12 13 14 15 16 17 18 19 20 21 22 23 24 25 26 27 28 29 30 31 32 33 34 35 36 37 38 39 40 41 42 43 44 45 46 47 48 49
357
ASUS44 KLZK 291505
RWRLZK

WEATHER ROUNDUP FOR ARKANSAS
NATIONAL WEATHER SERVICE LITTLE ROCK AR
1000 AM CDT SUN MAY 29 2016

NOTE: "FAIR" INDICATES FEW OR NO CLOUDS BELOW 12,000 FEET WITH NO
SIGNIFICANT WEATHER AND/OR OBSTRUCTIONS TO VISIBILITY.

ARZ001-003-010-029-291600-
NORTHWEST ARKANSAS

CITY           SKY/WX    TMP DP  RH WIND       PRES   REMARKS
FAYETTEVILLE   CLOUDY    71  69  93 CALM      30.17S
FORT SMITH     CLOUDY    73  67  81 SW3       30.14R
HARRISON       CLOUDY    73  68  84 NW3       30.18R
BENTONVILLE    PTSUNNY   75  66  73 CALM      30.18R
ROGERS           N/A     77  68  73 CALM      30.18S
SILOAM SPGS    CLOUDY    73  63  68 SE5       30.17S
HIGHFILL       PTSUNNY   73  69  87 S6        30.17R
SPRINGDALE     SUNNY     73  68  83 SE5       30.19S
$$

ARZ004-005-016-291600-
NORTH CENTRAL ARKANSAS

CITY           SKY/WX    TMP DP  RH WIND       PRES   REMARKS
BATESVILLE     PTSUNNY   77  70  78 CALM      30.13S
FLIPPIN        CLOUDY   N/A N/A N/A CALM      30.12S
MTN HOME       MOSUNNY   74  67  78 VRB3      30.14S
$$

ARZ040-041-291600-
WEST CENTRAL ARKANSAS

CITY           SKY/WX    TMP DP  RH WIND       PRES   REMARKS
MENA           MOSUNNY   77  73  88 CALM      30.16S
MOUNT IDA      PTSUNNY   77  69  76 VRB3      30.12S
$$

ARZ009-017-025-026-028-291600-
NORTHEAST ARKANSAS

CITY           SKY/WX    TMP DP  RH WIND       PRES   REMARKS
CORNING          N/A     77  72  83 CALM      30.12S
JONESBORO      SUNNY     80  69  69 CALM      30.11S
NEWPORT        MOSUNNY   79  69  71 W5        30.13F
WALNUT RIDGE   SUNNY     75  66  73 CALM      30.11F
BLYTHEVILLE    MOSUNNY   78  70  76 VRB5      30.12S
$$

ARZ022-023-033-042-044-291600-
CENTRAL ARKANSAS

CITY           SKY/WX    TMP DP  RH WIND       PRES   REMARKS
LITTLE ROCK    PTSUNNY   83  69  62 N6        30.13R HX  86
N LITTLE ROCK    N/A     79  71  76 N5        30.11S
JACKSONVILLE   SUNNY     80  71  72 N5        30.12S
SEARCY         PTSUNNY   79  72  78 VRB3      30.14S
HOT SPRINGS    MOSUNNY   79  70  74 CALM      30.14R
RUSSELLVILLE   CLOUDY    76  69  79 CALM      30.13S
CLINTON        FAIR      77  72  83 CALM      30.14S
$$

ARZ036-291600-
EAST ARKANSAS

CITY           SKY/WX    TMP DP  RH WIND       PRES   REMARKS
WEST MEMPHIS   CLOUDY    78  71  79 CALM      30.11F
$$

ARZ050-053-066-070-073-291600-
SOUTHWEST ARKANSAS

CITY           SKY/WX    TMP DP  RH WIND       PRES   REMARKS
ARKADELPHIA    FAIR      79  72  79 CALM      30.14R
CAMDEN         SUNNY     81  68  65 CALM      30.14R
TEXARKANA      MOSUNNY   82  72  71 W12       30.13R HX  87
EL DORADO      SUNNY     82  71  69 CALM      30.13S HX  86
DE QUEEN       MOSUNNY   80  73  79 NW3       30.11R
$$

ARZ056-057-069-291600-
SOUTHEAST ARKANSAS

CITY           SKY/WX    TMP DP  RH WIND       PRES   REMARKS
PINE BLUFF     MOSUNNY   79  69  71 NW3       30.14S
STUTTGART      SUNNY     81  70  69 W6        30.14R
MONTICELLO     MOSUNNY   83  71  67 CALM      30.14S HX  87

$$






USA.gov is the U.S. government's official web portal to all federal, state and local government web resources and services.